Regional Weather Roundup
Issued by NWS Northern Indiana

Home | Current Version | Previous Version | Graphics & Text | Print | Product List | Glossary On
Versions: 1 2 3 4 5 6 7 8 9 10 11 12 13 14 15 16 17 18 19 20 21 22 23 24 25 26 27 28 29 30 31 32 33 34 35 36 37 38 39 40 41 42 43 44 45 46 47 48 49 50
000
ASUS43 KIWX 221510
RWRIWX

KIWX WEATHER ROUNDUP
NATIONAL WEATHER SERVICE NORTHERN INDIANA
1100 AM EDT TUE JUL 22 2014

NOTE: "FAIR" INDICATES FEW OR NO CLOUDS BELOW 12,000 FEET WITH NO
SIGNIFICANT WEATHER AND/OR OBSTRUCTIONS TO VISIBILITY.

* THESE STATIONS ARE NOT UNDER NWS QUALITY CONTROL. THEY ALSO MAY NOT
  REPORT WEATHER SUCH AS PRECIPITATION OR FOG.

INZ001>027-221600-
NORTHERN INDIANA

CITY           SKY/WX    TMP DP  RH WIND       PRES   REMARKS
GARY*          SUNNY     81  66  61 S12       30.03F
VALPARAISO     SUNNY     79  66  64 S14       30.05F
MICHIGAN CITY* SUNNY     79  64  61 S9        30.03F
LAPORTE*       SUNNY     78  66  66 W13G18    30.05F
KNOX*          SUNNY     79  65  63 S12       30.05F
SOUTH BEND     SUNNY     80  65  59 S14       30.05F
ELKHART*       SUNNY     81  64  57 SW10      30.06
GOSHEN         SUNNY     80  66  62 S13       30.07F
MONTICELLO*    SUNNY     78  69  74 SW8       30.07F
LOGANSPORT*    SUNNY     81  64  57 S9        30.09F
ROCHESTER*     SUNNY     82  64  54 SW10      30.07F
WARSAW*        SUNNY     79  66  65 S7        30.08F
ANGOLA*        SUNNY     82  66  57 SW13      30.08F
FORT WAYNE     SUNNY     82  64  54 SW10      30.10F
HUNTINGTON*    SUNNY     81  66  60 SW8       30.09F
PERU/GRISSOM   SUNNY     82  70  66 SW10      30.09F
MARION*        SUNNY     80  65  62 SW3       30.11F

$$
INZ028>050-221600-
CENTRAL INDIANA

CITY           SKY/WX    TMP DP  RH WIND       PRES   REMARKS
LAFAYETTE      SUNNY     80  68  66 SW7       30.08F
KOKOMO*        SUNNY     81  68  65 S9        30.09F
MUNCIE*        SUNNY     82  67  60 SW5       30.12F
INDIANAPOLIS   SUNNY     81  66  60 S6        30.10F

$$
MIZ043>046-050>051-056>058-064>065-071>073-077>080-221600-
SOUTHWEST LOWER MICHIGAN

CITY           SKY/WX    TMP DP  RH WIND       PRES   REMARKS
BATTLE CREEK   SUNNY     80  65  59 SW13      30.06F
BENTON HARBOR  SUNNY     79  66  64 S14       30.01F
COLDWATER*     SUNNY     81  67  61 S10       30.08F
HILLSDALE*     SUNNY     80  65  60 S7        30.09F
HOLLAND        SUNNY     82  67  60 S14       30.02F
GRAND RAPIDS   MOSUNNY   81  68  64 SW15      30.02F
KALAMAZOO      SUNNY     81  67  62 SW14      30.05F
STURGIS*       SUNNY     79  70  73 S12       30.07F
THREE RIVERS*  FAIR      79  69  72 S10       30.06F

$$
OHZ001>008-015>018-024>025-221600-
NORTHWEST OHIO

CITY           SKY/WX    TMP DP  RH WIND       PRES   REMARKS
WAUSEON*       FAIR      82  66  57 SW10      30.09F
DEFIANCE       SUNNY     83  65  54 S8        30.10F
FINDLAY        SUNNY     83  66  56 S6        30.10F
TOLEDO EXPRESS SUNNY     84  64  50 SW8       30.09F
TOLEDO METCALF SUNNY     83  62  49 SW9       30.10F
LIMA           SUNNY     83  67  58 SW6       30.12F

$$
&&



USA.gov is the U.S. government's official web portal to all federal, state and local government web resources and services.